Location: Go?cza
(50.3372°N, 19.9313°E)
Time: 21:30:12
(UTC+00:00)

Cosmos 2242 Rocket - Pass Details

Date: 23 May 2024
Orbit: 616 x 647 km, 82.5° (Epoch: 22 June)

Event Time Altitude Azimuth Distance (km) Brightness Sun altitude
Exits shadow 00:53:32 15° 182° (S) 1,671 5.3 -12.9°
Maximum altitude 00:57:08 77° 99° (E) 653 3.7 -12.6°
Drops below altitude 10° 01:01:38 10° 13° (NNE) 2,033 7.4 -12.2°
Sets 01:03:54 0° 12° (NNE) 2,952 8.4 -12.0°
